Regional Weather Roundup
Issued by NWS Glasgow, MT

Home | Current Version | Previous Version | Text Only | Print | Product List | Glossary On
Versions: 1 2 3 4 5 6 7 8 9 10 11 12 13 14 15 16 17 18 19 20 21 22 23 24 25 26 27
000
ASUS45 KGGW 301815
RWRGGW
HOURLY REGIONAL WEATHER ROUNDUP FOR NORTHEAST MONTANA
NATIONAL WEATHER SERVICE GLASGOW MONTANA
1200 PM MDT SUN APR 30 2017

NOTE: "FAIR" INDICATES FEW OR NO CLOUDS BELOW 12,000 FEET WITH NO
SIGNIFICANT WEATHER AND/OR OBSTRUCTIONS TO VISISBILITY.

NORTHEAST MONTANA


CITY           SKY/WX    TMP DP  RH WIND       PRES   REMARKS
GLASGOW        CLOUDY    60  32  34 W13       29.87F
6HR MIN TEMP:  36; 6HR MAX TEMP:  60;

PLENTYWOOD       N/A     62  21  20 S14G22      N/A
WOLF POINT     PTSUNNY   65  31  28 W15G23    29.86F
JORDAN           N/A     60  31  33 W10G18    29.90F
WINNETT          N/A     58  32  37 W12G20      N/A
SIDNEY         SUNNY     63  22  20 S16       29.90F
GLENDIVE       NOT AVBL
MALTA            N/A     58  37  45 W6          N/A
SCOBEY           N/A     62  25  24 S15G24    29.86

FORT PECK REPORTS


CITY           SKY/WX    TMP DP  RH WIND       PRES   REMARKS
FORT PECK        N/A     53  38  56 S17         N/A
THE PINES        N/A     58  28  32 N2          N/A

SOUTHEAST MONTANA


CITY           SKY/WX    TMP DP  RH WIND       PRES   REMARKS
BILLINGS       MOSUNNY   56  32  40 W14       29.96F
MILES CITY     SUNNY     63  26  24 W13       29.91F
BAKER          NOT AVBL
LIVINGSTON     CLOUDY    53  31  42 SW24G31   29.98S

CENTRAL MONTANA


CITY           SKY/WX    TMP DP  RH WIND       PRES   REMARKS
HAVRE          CLOUDY    59  33  37 SW10      29.85F
LEWISTOWN      PTSUNNY   53  33  46 W16G25    29.92F
GREAT FALLS    CLOUDY    53  32  44 SW22G30   29.91F
CUT BANK       MOSUNNY   53  31  42 SW16      29.87F
HELENA         CLOUDY    52  34  50 E7        29.97F
BUTTE          CLOUDY    47  26  44 SW7       30.02F
BOZEMAN        CLOUDY    50  35  56 W7        30.04R

WESTERN MONTANA


CITY           SKY/WX    TMP DP  RH WIND       PRES   REMARKS
MISSOULA       CLOUDY    51  37  58 CALM      30.03R
KALISPELL      NOT AVBL

NORTH DAKOTA


CITY           SKY/WX    TMP DP  RH WIND       PRES   REMARKS
WILLISTON      SUNNY     65  19  17 SW14G24   29.92F
DICKINSON      SUNNY     59  16  18 E9        29.95S
MINOT          SUNNY     65  20  17 VRB3      29.94F
BISMARCK       SUNNY     61  25  25 SE10G17   30.00F

SOUTHERN SASKATCHEWAN


CITY           SKY/WX    TMP DP  RH WIND       PRES   REMARKS
REGINA         MOSUNNY   61  36  39 SE8       29.85F
ESTEVAN        MOSUNNY   63  25  23 SW18G25   29.90F
SWIFT CURRENT  PTSUNNY   54  37  54 VRB2      29.80F





USA.gov is the U.S. government's official web portal to all federal, state and local government web resources and services.